{"data":{"norad_id":55291,"intl_designator":"2023-010Y","name":"STARLINK-5327","alt_names":[],"object_type":"PAYLOAD","status":"ACTIVE","operator":null,"country":"US","launch_date":"2023-01-19","launch_site_code":"AFWTR","launch_vehicle":null,"mission":null,"orbit_class":"UNKNOWN","rcs_meters":null,"size_class":null,"mass_kg":null,"dimensions":null,"purposes":["comms"],"wikipedia_slug":null,"has_3d_model":false,"image_url":null,"decayed_at":null,"tle_current":{"epoch":"2026-09-20T22:45:31.836096Z","epoch_age_seconds":54662,"freshness":"FRESH","line1":"1 55291U 23010Y   26263.94828514 -.00000058  00000+0  29245-5 0  9998","line2":"2 55291  69.9984 252.2703 0002997 273.2885  86.7931 14.98330072202513","mean_motion":14.98330072,"eccentricity":0.0002997,"inclination_deg":69.9984,"raan_deg":252.2703,"arg_perigee_deg":273.2885,"mean_anomaly_deg":86.7931,"bstar":2.9245e-6,"rev_number":20251,"period_min":96.106994507416,"perigee_km":569.97269554768,"apogee_km":574.13864103305,"semimajor_km":6950.1926682904,"source":"CELESTRAK","updated_at":"2026-09-21T09:00:33.169373Z"}}}